This is the latest recevied weather packets stored in our database for station/object CT2IRJ-11. If no packets are shown the sender has not sent any weather packets the latest 10 day(s).
| Time | Temp. | Humidity | Pressure | Rain* | Wind** | Luminosity | Snow |
|---|---|---|---|---|---|---|---|
| 1777475010 | 18.89° C | 65% | 1008.5 hPa | 0 mm | - | 280 W/m² | - |
| 1777474710 | 18.89° C | 65% | 1008.5 hPa | 0 mm | - | 205 W/m² | - |
| 1777474410 | 18.89° C | 67% | 1008.8 hPa | 0 mm | - | 212 W/m² | - |
| 1777474110 | 18.89° C | 66% | 1008.5 hPa | 0 mm | - | 197 W/m² | - |
| 1777473810 | 20° C | 64% | 1008.5 hPa | 0 mm | - | 251 W/m² | - |
| 1777473511 | 20.56° C | 64% | 1008.8 hPa | 0 mm | - | 324 W/m² | - |
| 1777473211 | 21.11° C | 59% | 1008.5 hPa | 0 mm | - | 749 W/m² | - |
| 1777472910 | 21.11° C | 61% | 1008.5 hPa | 0 mm | - | 777 W/m² | - |
| 1777472610 | 21.11° C | 55% | 1008.5 hPa | 0 mm | - | 688 W/m² | - |
| 1777472310 | 20.56° C | 60% | 1008.5 hPa | 0 mm | - | 627 W/m² | - |
| 1777472010 | 20° C | 61% | 1008.5 hPa | 0 mm | - | 285 W/m² | - |
| 1777471710 | 20.56° C | 61% | 1008.1 hPa | 0 mm | - | 439 W/m² | - |
| 1777471410 | 20° C | 65% | 1008.5 hPa | 0 mm | - | 436 W/m² | - |
| 1777471110 | 19.44° C | 67% | 1008.5 hPa | 0 mm | - | 591 W/m² | - |
| 1777470809 | 19.44° C | 65% | 1008.5 hPa | 0 mm | - | 303 W/m² | - |
| 1777470509 | 18.89° C | 67% | 1008.5 hPa | 0 mm | - | 195 W/m² | - |
| 1777470210 | 18.33° C | 69% | 1008.1 hPa | 0 mm | - | 165 W/m² | - |
| 1777469910 | 18.89° C | 73% | 1008.5 hPa | 0 mm | - | 101 W/m² | - |
| 1777469609 | 18.89° C | 73% | 1008.1 hPa | 0 mm | - | 117 W/m² | - |
| 1777469310 | 19.44° C | 68% | 1008.1 hPa | 0 mm | - | 167 W/m² | - |
| 1777469010 | 19.44° C | 70% | 1008.5 hPa | 0 mm | - | 227 W/m² | - |
| 1777468710 | 19.44° C | 68% | 1008.5 hPa | 0 mm | - | 239 W/m² | - |
| 1777468409 | 20° C | 68% | 1008.5 hPa | 0 mm | - | 426 W/m² | - |
| 1777468110 | 19.44° C | 69% | 1008.1 hPa | 0 mm | - | 259 W/m² | - |
| 1777467810 | 20° C | 72% | 1008.5 hPa | 0 mm | - | 279 W/m² | - |
* Rain latest hour (hover to see other rain measurements)
** Current wind speed in m/s (hover to see current wind gust speed)